Wind_Speed
27 28 29 29 31 31 30 31 31 31 32 33 34 35 36 36 35 36 37 37 38 39 39 39 40 39 39 39 40 40 40 38 37 36 37 36 36 36 37 37 37 38 38
27 29 29 30 31 32 32 30 30 31 31 31 32 33 34 34 35 35 35 36 38 38 38 38 38 39 39 39 39 38 38 39 37 36 36 36 37 37 37 38 38 37 38
26 27 28 29 30 30 31 31 31 30 30 30 30 31 32 33 34 34 35 35 35 36 36 36 36 37 37 38 38 38 38 37 37 36 35 36 36 36 37 37 38 38 38
25 26 27 28 28 27 29 30 30 30 29 29 29 29 31 33 33 34 34 33 33 33 33 34 33 34 34 36 37 37 37 36 35 36 36 36 35 35 35 36 37 38 37
25 26 27 27 27 27 28 29 29 29 30 30 30 30 31 31 31 32 32 32 32 32 32 32 34 33 33 35 36 36 36 36 36 36 35 35 35 35 35 36 36 36 37
26 26 26 25 25 25 26 27 28 28 29 29 30 30 29 29 30 30 31 31 31 32 32 32 32 34 34 34 34 34 35 35 36 35 35 35 35 35 36 36 36 36 36
26 26 25 25 25 25 25 26 28 28 28 28 28 29 29 29 29 30 29 30 30 31 31 32 33 34 33 33 34 34 34 34 34 35 35 35 35 35 36 36 36 36 36
25 25 25 25 26 26 26 26 26 27 27 27 28 29 29 29 30 30 30 30 30 30 30 31 32 32 32 32 33 34 34 34 34 34 35 35 35 34 35 35 35 35 35
23 24 25 25 26 26 26 26 27 28 28 28 28 29 30 30 30 30 30 30 31 31 30 31 31 31 32 32 33 33 33 34 33 33 33 34 35 34 33 33 33 33 32
23 24 24 24 25 25 25 25 26 27 27 28 28 29 30 30 30 30 30 30 31 31 31 31 31 31 32 33 33 33 32 32 32 32 33 33 33 33 33 32 31 31 31
24 24 24 25 25 25 26 26 26 26 27 27 28 29 29 29 30 30 31 31 31 32 32 32 31 32 32 33 33 32 32 32 32 32 32 32 32 32 32 32 31 31 30
26 26 26 26 26 26 26 26 27 27 27 28 28 28 29 30 30 31 32 32 32 32 33 33 32 32 32 33 32 32 31 32 32 31 31 31 30 30 30 30 30 29 29
26 26 27 27 28 27 27 27 28 28 28 29 29 30 30 30 31 31 31 31 32 32 33 33 32 32 32 33 33 32 32 31 31 31 30 30 30 30 29 29 29 28 27
26 27 27 28 29 29 28 28 28 28 28 29 29 29 29 30 30 30 30 31 31 32 33 33 33 33 33 33 33 32 32 31 31 31 31 30 30 30 29 28 28 29 28
28 28 29 29 30 30 29 29 29 29 30 30 30 30 30 29 29 30 30 31 31 31 31 32 32 33 33 33 33 32 32 33 32 31 30 30 30 29 29 28 28 27 28
28 29 29 29 30 29 29 29 30 30 29 30 30 30 30 30 29 29 30 30 30 31 31 31 31 32 32 31 31 32 32 32 31 31 30 30 30 29 29 28 28 27 26
28 28 29 29 29 29 29 30 30 30 30 30 30 30 30 30 30 30 30 30 30 30 30 31 31 31 31 31 31 31 30 30 30 30 30 29 29 29 29 28 28 27 27
28 29 29 29 29 30 30 30 30 30 30 30 30 31 30 30 30 31 30 30 30 30 30 30 30 30 30 30 30 29 29 29 28 29 28 28 28 28 28 28 28 27 27
28 29 29 29 29 30 30 30 30 30 30 30 31 31 31 31 32 31 31 30 30 30 30 30 30 30 30 29 29 28 28 28 28 28 28 28 28 28 27 27 26 26 25
28 28 28 29 29 29 30 30 30 31 31 31 31 31 31 32 31 31 31 31 30 30 30 30 29 29 29 28 28 27 27 27 27 27 27 27 27 26 27 26 25 25 24
28 29 28 29 29 29 30 30 30 31 31 32 32 32 31 31 30 30 30 30 30 30 30 28 28 28 28 27 27 26 26 26 27 27 27 26 26 26 26 25 24 24 23
29 29 29 29 29 29 29 29 29 29 30 30 31 31 30 30 30 30 29 29 29 28 28 28 28 27 27 26 26 26 25 25 26 26 26 26 25 25 24 24 22 22 22
29 29 29 29 29 29 29 29 29 28 29 29 30 30 30 30 30 30 30 29 29 28 28 28 28 27 27 26 25 25 25 24 25 25 24 24 23 23 22 21 20 19 19
29 29 30 30 30 30 30 30 29 29 29 30 30 30 30 30 30 30 30 29 29 29 28 28 27 27 26 26 25 24 23 23 23 23 22 22 21 20 20 19 18 17 17
28 29 29 30 30 30 30 30 30 30 31 31 31 31 31 30 30 30 30 30 29 28 27 26 25 24 23 23 23 23 22 22 21 20 20 20 19 18 18 17 16 16 16
28 29 29 30 30 30 30 30 31 31 31 30 30 29 29 29 29 29 29 28 27 26 25 23 23 22 21 21 21 21 21 20 20 19 19 18 18 17 16 16 15 15 15
Wind_Direction
263 264 264 262 260 256 258 258 257 257 256 255 256 257 257 260 263 264 262 262 262 265 265 266 266 268 270 271 271 271 271 272 273 273 274 273 275 278 279 282 283 285 287
264 264 266 266 263 260 259 258 258 258 259 257 259 260 259 260 262 264 264 264 265 266 267 267 267 269 270 272 271 271 271 272 271 272 274 274 276 277 278 281 283 285 287
267 267 266 267 267 263 259 257 257 258 259 260 263 263 262 262 264 264 266 268 268 266 265 266 268 269 269 270 271 271 271 272 270 272 273 275 277 277 278 280 282 284 286
268 268 269 269 267 264 260 258 257 258 259 262 265 266 265 266 266 266 266 267 268 267 266 266 269 269 268 269 271 272 271 271 271 272 274 275 277 279 279 279 281 283 285
268 268 270 269 266 265 262 258 259 261 261 262 264 266 267 267 267 266 266 267 267 267 269 270 271 270 271 271 271 271 272 272 272 272 273 275 277 279 279 280 280 282 285
269 270 271 268 266 264 262 261 260 261 263 265 265 266 266 266 267 269 268 268 268 269 271 272 272 271 270 272 273 272 273 272 272 272 272 273 276 280 280 282 281 282 284
271 269 269 268 265 263 264 264 264 264 264 266 268 268 267 266 267 269 269 269 270 271 273 273 273 272 272 274 273 273 272 273 274 275 274 274 277 280 281 283 285 285 286
268 266 267 266 265 265 266 266 266 267 267 267 270 271 269 269 270 270 272 271 271 273 274 275 274 275 274 275 274 273 272 274 277 277 277 277 277 280 283 284 284 286 287
271 268 267 265 264 265 266 266 266 267 268 270 272 271 271 272 272 271 272 271 272 273 274 275 275 274 274 274 275 274 272 274 275 276 278 279 279 279 282 282 283 285 286
274 271 268 266 264 264 265 266 266 267 269 272 272 272 272 272 274 272 272 274 275 275 275 275 276 276 275 275 276 274 272 272 274 277 278 278 279 279 280 280 282 283 284
275 273 268 264 263 264 266 266 267 268 269 271 272 272 272 273 274 273 273 275 276 276 274 274 276 277 276 276 276 275 273 273 274 277 278 278 279 280 279 280 281 283 285
275 273 270 266 263 264 266 266 268 270 273 272 272 273 274 274 274 274 274 275 276 276 274 274 275 277 278 276 276 276 275 274 274 276 277 277 277 278 280 281 281 284 285
276 275 271 267 266 267 268 269 271 274 275 275 275 274 275 276 276 275 275 276 278 277 275 274 277 278 278 278 277 276 275 274 274 275 276 276 275 277 280 281 280 282 285
278 276 273 269 267 268 268 270 272 273 273 275 277 277 278 279 278 278 279 279 280 279 277 276 277 278 279 280 278 275 274 272 272 274 275 275 275 275 277 280 281 282 284
279 278 275 271 268 268 268 270 273 274 274 275 276 277 277 279 279 279 281 281 281 280 278 277 277 279 280 279 277 275 273 273 274 276 275 273 273 275 276 278 280 280 282
279 278 276 274 270 268 268 270 271 272 273 274 275 276 277 278 279 280 281 281 281 281 279 277 277 278 279 279 278 275 274 274 275 274 273 273 272 273 275 276 278 278 281
279 279 277 275 272 270 270 270 270 271 272 273 274 275 277 279 279 281 282 282 283 283 280 278 277 277 278 279 279 277 275 275 275 274 272 272 273 273 273 275 276 277 279
280 279 279 277 273 272 271 271 270 271 272 273 274 275 277 278 280 281 283 283 284 284 282 279 277 277 277 278 279 278 275 274 274 274 272 272 273 273 272 273 274 275 277
282 281 281 279 277 275 274 274 273 273 273 273 274 275 277 279 281 281 282 282 283 283 282 281 279 278 278 279 279 277 275 273 273 274 273 273 272 272 271 271 272 273 275
286 284 283 282 280 278 277 277 277 276 275 275 275 276 276 278 279 280 281 280 282 283 281 280 279 278 277 277 278 277 276 274 273 273 273 272 271 271 271 270 270 271 273
288 287 284 282 282 281 280 279 279 278 277 276 276 276 276 277 277 279 280 280 281 281 280 279 279 278 276 276 276 276 275 274 273 272 272 270 270 270 270 270 270 269 271
288 288 287 285 284 283 283 281 281 282 279 277 276 276 276 276 277 278 279 279 280 280 278 277 278 277 276 275 276 275 274 273 272 272 271 270 269 269 269 269 269 268 267
287 287 287 287 286 285 284 283 282 282 281 278 276 276 276 277 277 277 277 277 278 277 276 277 278 278 276 274 273 273 273 273 273 272 271 269 267 266 266 265 265 265 262
286 286 286 286 287 287 286 285 284 283 282 281 279 277 277 277 277 276 275 276 277 276 276 276 277 278 276 273 272 272 273 273 273 271 269 267 264 263 262 262 259 257 257
287 286 286 286 286 287 287 286 285 283 283 282 280 278 277 276 275 274 273 274 275 275 274 274 275 276 275 273 272 271 271 272 270 267 266 263 259 258 256 255 253 250 249
287 287 287 287 287 287 287 286 286 285 283 282 281 280 278 276 274 272 271 272 273 273 272 272 272 273 274 274 273 271 270 269 267 264 263 259 255 253 250 249 250 248 244
Height
5635 5635 5636 5637 5637 5638 5639 5640 5641 5643 5644 5646 5648 5649 5650 5651 5652 5653 5655 5655 5656 5657 5657 5658 5659 5659 5659 5660 5660 5661 5661 5661 5662 5662 5662 5662 5661 5661 5660 5659 5657 5656 5654
5629 5629 5630 5630 5631 5632 5633 5634 5635 5636 5637 5639 5640 5641 5642 5643 5644 5645 5646 5647 5648 5648 5648 5649 5649 5650 5650 5650 5650 5650 5651 5651 5652 5652 5652 5652 5652 5651 5650 5649 5648 5646 5645
5622 5622 5623 5623 5624 5624 5625 5627 5628 5629 5630 5631 5632 5633 5634 5635 5636 5637 5638 5638 5639 5639 5639 5640 5640 5641 5641 5641 5641 5641 5641 5641 5642 5643 5643 5643 5642 5641 5641 5640 5639 5637 5635
5616 5616 5616 5616 5616 5617 5618 5619 5620 5622 5623 5624 5625 5625 5626 5626 5627 5629 5629 5630 5630 5631 5631 5631 5631 5632 5632 5632 5632 5631 5631 5632 5632 5633 5633 5633 5633 5632 5631 5631 5629 5628 5626
5610 5609 5609 5609 5609 5609 5610 5612 5613 5614 5615 5616 5617 5617 5618 5618 5619 5620 5621 5621 5622 5623 5623 5623 5623 5623 5622 5622 5622 5622 5622 5622 5623 5623 5623 5624 5623 5622 5622 5621 5620 5618 5617
5603 5602 5602 5602 5602 5603 5604 5605 5606 5607 5608 5609 5609 5610 5610 5611 5612 5612 5612 5613 5614 5614 5614 5614 5614 5614 5614 5613 5613 5612 5613 5613 5613 5613 5614 5614 5614 5613 5612 5611 5610 5609 5608
5595 5595 5595 5595 5595 5596 5597 5598 5599 5600 5600 5601 5602 5602 5603 5603 5604 5604 5604 5605 5605 5605 5605 5605 5605 5605 5604 5604 5604 5603 5603 5603 5603 5604 5604 5604 5604 5603 5602 5602 5600 5598 5597
5588 5588 5588 5588 5588 5589 5590 5591 5592 5592 5593 5594 5594 5595 5595 5596 5596 5596 5597 5597 5597 5596 5596 5596 5596 5596 5595 5595 5595 5594 5594 5594 5594 5594 5595 5595 5594 5593 5592 5591 5590 5588 5587
5582 5582 5581 5581 5582 5582 5583 5584 5584 5585 5586 5586 5587 5587 5587 5588 5588 5588 5588 5589 5588 5588 5588 5587 5587 5587 5586 5586 5586 5585 5585 5585 5585 5585 5585 5584 5584 5583 5582 5581 5580 5579 5578
5576 5575 5575 5575 5575 5575 5576 5577 5577 5578 5579 5579 5579 5579 5579 5580 5579 5580 5580 5580 5580 5580 5579 5579 5578 5577 5577 5576 5576 5576 5576 5576 5576 5576 5575 5575 5574 5574 5573 5573 5572 5571 5569
5569 5568 5568 5568 5568 5569 5569 5569 5570 5570 5571 5571 5571 5571 5571 5571 5571 5571 5571 5571 5571 5571 5570 5570 5569 5568 5568 5567 5567 5567 5567 5566 5566 5566 5566 5566 5565 5565 5565 5564 5563 5562 5561
5562 5561 5561 5561 5561 5561 5562 5562 5563 5563 5563 5563 5563 5563 5562 5562 5562 5562 5562 5562 5561 5561 5561 5560 5560 5559 5559 5558 5558 5558 5557 5557 5557 5557 5557 5557 5557 5557 5556 5556 5555 5554 5553
5555 5554 5553 5554 5554 5554 5554 5555 5555 5555 5555 5555 5555 5555 5554 5554 5553 5553 5552 5552 5551 5551 5551 5551 5550 5550 5550 5549 5549 5548 5548 5548 5548 5548 5548 5548 5548 5548 5547 5547 5547 5546 5545
5548 5547 5546 5546 5546 5546 5546 5547 5547 5547 5547 5547 5547 5546 5546 5545 5545 5544 5543 5543 5542 5541 5541 5541 5541 5541 5540 5539 5539 5539 5538 5539 5539 5539 5539 5539 5539 5539 5538 5538 5538 5537 5537
5540 5539 5538 5538 5538 5538 5538 5538 5538 5538 5538 5538 5538 5538 5537 5537 5536 5535 5534 5534 5533 5532 5532 5532 5531 5531 5531 5530 5529 5529 5529 5529 5530 5530 5529 5530 5530 5530 5529 5530 5529 5529 5528
5532 5531 5530 5530 5529 5529 5529 5530 5529 5530 5529 5529 5529 5529 5528 5528 5527 5526 5526 5525 5524 5523 5523 5522 5522 5522 5521 5521 5520 5520 5520 5520 5520 5520 5520 5520 5520 5520 5521 5521 5521 5521 5520
5524 5523 5522 5521 5521 5521 5521 5521 5521 5521 5521 5521 5520 5520 5520 5519 5518 5518 5517 5516 5515 5514 5513 5513 5513 5513 5512 5511 5511 5510 5510 5510 5510 5510 5511 5511 5511 5511 5511 5512 5512 5512 5512
5516 5515 5514 5513 5513 5513 5512 5512 5512 5512 5512 5512 5512 5511 5510 5510 5509 5509 5508 5507 5506 5505 5504 5503 5503 5503 5502 5502 5502 5501 5501 5501 5501 5501 5501 5502 5502 5502 5502 5503 5503 5504 5503
5508 5507 5506 5505 5504 5504 5504 5503 5503 5503 5503 5502 5502 5502 5501 5501 5500 5499 5498 5498 5497 5496 5495 5494 5493 5493 5493 5493 5492 5492 5492 5492 5492 5492 5492 5492 5493 5493 5494 5494 5495 5495 5495
5500 5499 5498 5497 5496 5495 5495 5494 5494 5494 5493 5493 5493 5492 5492 5491 5491 5490 5489 5489 5488 5487 5486 5485 5484 5484 5484 5484 5483 5483 5483 5483 5483 5483 5483 5484 5484 5484 5485 5486 5486 5486 5487
5493 5491 5490 5489 5488 5487 5486 5485 5485 5484 5484 5483 5483 5482 5482 5482 5481 5480 5480 5479 5479 5478 5477 5476 5475 5475 5475 5475 5474 5474 5474 5474 5474 5475 5475 5475 5475 5476 5477 5477 5478 5478 5479
5485 5483 5482 5481 5480 5479 5477 5477 5476 5475 5474 5473 5473 5472 5472 5472 5471 5471 5470 5470 5469 5468 5468 5467 5467 5466 5466 5466 5466 5465 5465 5465 5466 5466 5466 5466 5467 5468 5469 5469 5470 5471 5472
5476 5475 5474 5473 5471 5470 5469 5468 5467 5466 5465 5464 5464 5463 5463 5462 5462 5462 5461 5460 5460 5459 5459 5458 5458 5457 5457 5457 5457 5457 5457 5457 5457 5457 5458 5458 5459 5460 5461 5462 5463 5464 5465
5468 5467 5466 5464 5463 5462 5460 5459 5458 5457 5456 5455 5454 5454 5453 5453 5452 5452 5452 5451 5451 5450 5450 5450 5449 5449 5448 5448 5448 5449 5449 5449 5449 5449 5450 5451 5452 5452 5453 5455 5456 5457 5458
5460 5459 5457 5456 5454 5453 5452 5450 5449 5448 5447 5446 5445 5444 5444 5443 5443 5443 5442 5442 5442 5441 5441 5441 5440 5440 5440 5440 5440 5441 5441 5441 5442 5442 5443 5444 5445 5446 5447 5448 5450 5451 5452
5452 5450 5449 5447 5445 5444 5443 5441 5440 5439 5438 5436 5436 5435 5434 5434 5433 5433 5433 5433 5432 5432 5432 5433 5433 5433 5433 5433 5433 5433 5434 5434 5435 5436 5436 5438 5439 5440 5441 5443 5444 5445 5447